User: anonymous   Login
Location: Unspecified
(42.1900°N, 71.3291°W)
Time: 01:13:08
(UTC-05:00)
Language:

Resurs 1-4 Rocket - Orbit

View from above orbital plane
View from above orbital plane
View from above satellite
View from above satellite

Ground track
Ground track

The orbit data is extracted from the following two-line orbital elements,

1 25400U 98043G   14353.54220536  .00000151  00000-0  81528-4 0  8329
2 25400 098.3601 321.5390 0011026 086.2236 274.0205 14.25285369855340
Epoch (UTC): 19 December 2014 13:00:46
Eccentricity: 0.0011026
inclination: 98.3601°
perigee height: 799 km
apogee height: 815 km
right ascension of ascending node: 321.5390°
argument of perigee: 86.2236°
revolutions per day: 14.25285369
mean anomaly at epoch: 274.0205°
orbit number at epoch: 85534

The dashed part of the orbit path shows where the satellite is in the earth's shadow,  

DLR